Location: Aigremont
(47.7188°N, 3.8925°E)
Time: 09:47:48
(UTC+00:00)

NOSS 2-1 (C) - Pass Details

Date: 18 February 2020
Orbit: 450 x 1753 km, 63.3° (Epoch: 04 April)

Event Time Altitude Azimuth Distance (km) Brightness Sun altitude
Exits shadow 05:15:13 26° 312° (NW) 975 4.2 -16.0°
Maximum altitude 05:15:39 27° 325° (NW) 966 4.2 -15.9°
Drops below altitude 10° 05:19:00 10° 25° (NNE) 1,805 6.3 -15.3°
Sets 05:21:42 0° 37° (NE) 2,858 7.5 -14.9°
